Powrót do katalogu

METEOR 2-11 DEB

AktywnyPO
NORAD 43309·DEBRIS·🇷🇺 Russia

Wystrzelony Jul 5, 1984 z Plesetsk Cosmodrome

Loading…

Następne Przeloty (najbliższe 24 godziny)

TLE

ŚwieżeSource: Space-Track

Epoka: Sep 14, 2026, 10:31 UTC

1 43309U 84072U   26257.43820571  .00000123  00000-0  73080-4 0  9990
2 43309  82.5266 296.1272 0033406  87.2645 273.2347 13.99688029575782

Śledź METEOR 2-11 DEB w czasie rzeczywistym z AllMySat

Download on the App Store